"Pseudo-MPEC" for xO29001

Created 2022 Nov 26 21:22:25 UT using Find_Orb

Click here for an explanation of pseudo-MPECs

 
 Astrometry: 
     xO29001*LC2022 10 30.60902010 44 38.431-02 56 36.67   ~BNM7 22.5 rVNEOCP568
     xO29001 LC2022 10 30.62309910 44 40.654-02 56 53.48   ~AV3b 22.4 rVNEOCP568
     xO29001 LC2022 10 30.62591810 44 41.098-02 56 56.83   ~AV3b 22.5 rVNEOCP568
     xO29001 LC2022 10 30.63720810 44 42.888-02 57 10.37   ~AV3b 22.4 rVNEOCP568
     xO29001 LC2022 10 30.64845810 44 44.659-02 57 23.87   ~AV3b 22.5 rVNEOCP568
     xO29001 3C2022 11 01iUZTX]Rr_[AstrometryBYX;`xredacted;-g]qjm+)Vy+85tH,/T14
     xO29001 3C2022 11 01Vl/6+1LNclickD^C*\Qq?here3.EiaP[vK)\Z`!IkeZ=9XV7b8B3T14
     xO29001 3C2022 11 01XDOE,Ohm%ID*-m[xpforMd*DWexplanationbn$96kK[uJgJ85O;T14

Station data:
(568) Mauna Kea  (N19.826114 W155.472200)  US/Hawaii. 3.6-m
   Canada-France-Hawaii Telescope + CCD2.24-m University of Hawaii reflector.
(T14) Mauna Kea-UH/Tholen NEO Follow-Up (CFHT)  (N19.825252 W155.468876)
   US/Hawaii. 3.6-m Canada-France-Hawaii Telescope.

Orbital elements:  xO29001
   Perihelion 2023 Jan 25.89376 +/- 81.4 TT = 21:27:01 (JD 2459970.39376)
Epoch 2022 Nov  1.0 TT = JDT 2459884.5   Earth MOID: 0.4194   Ma: 0.0136
M 340.58831630 +/- 80               (J2000 ecliptic)          AutoNEOCP
n   0.22599642 +/- 0.398            Peri.  310.09805 +/- 100
a   2.66932630 +/- 3.13             Node   241.76644 +/- 18
e   0.4833956 +/- 0.178             Incl.   13.09698 +/- 1.1
P   4.36                   H 18.8   G  0.15   U 12.1  SR
q 1.37898570 +/- 0.432    Q 3.95966689 +/- 3.67
From 8 observations 2022 Oct. 30-Nov. 1; mean residual 0".04
Residuals in arcseconds: 
221030 568  .02-  .01+    221030 568  .08+  .01-    221101 T14  .03-  .02-    
221030 568  .03-  .02+    221030 568  .02+  .06-    221101 T14  .08+  .04+    
221030 568  .05-  .04+    221101 T14  .05-  .02-    

Ephemerides (geocentric):
Date (UTC) HH   RA             Dec           delta  r     elong  mag " sig PA
---- --------  ------------   ------------  ------ ------ -----  --- --------
2022 11 26 21  12 00 45.666   -12 25 40.70  1.7368 1.5045  59.8 22.4 7270  25
2022 11 26 22  12 00 53.052   -12 26 33.93  1.7365 1.5043  59.8 22.4 7295  25
2022 11 26 23  12 01 00.440   -12 27 27.16  1.7361 1.5042  59.8 22.4 7321  25
2022 11 27 00  12 01 07.829   -12 28 20.38  1.7357 1.5040  59.8 22.4 7346  25
2022 11 27 01  12 01 15.220   -12 29 13.60  1.7354 1.5039  59.8 22.4 7371  25
2022 11 27 02  12 01 22.612   -12 30 06.82  1.7350 1.5037  59.8 22.4 7397  25
2022 11 27 03  12 01 30.005   -12 31 00.04  1.7347 1.5035  59.8 22.4 7422  25
2022 11 27 04  12 01 37.400   -12 31 53.25  1.7343 1.5034  59.8 22.4 7448  25
2022 11 27 05  12 01 44.796   -12 32 46.46  1.7339 1.5032  59.8 22.4 7473  25
2022 11 27 06  12 01 52.194   -12 33 39.67  1.7336 1.5031  59.8 22.4 7499  25
2022 11 27 07  12 01 59.592   -12 34 32.88  1.7332 1.5029  59.8 22.4 7525  25
2022 11 27 08  12 02 06.993   -12 35 26.09  1.7329 1.5027  59.8 22.4 7551  25
2022 11 27 09  12 02 14.394   -12 36 19.29  1.7325 1.5026  59.8 22.4 7576  25
2022 11 27 10  12 02 21.797   -12 37 12.49  1.7321 1.5024  59.9 22.4 7602  25
2022 11 27 11  12 02 29.202   -12 38 05.69  1.7318 1.5022  59.9 22.4 7628  25
2022 11 27 12  12 02 36.607   -12 38 58.89  1.7314 1.5021  59.9 22.4 7654  25
2022 11 27 13  12 02 44.014   -12 39 52.08  1.7311 1.5019  59.9 22.4 7680  25
2022 11 27 14  12 02 51.423   -12 40 45.27  1.7307 1.5018  59.9 22.4 7706  25
2022 11 27 15  12 02 58.833   -12 41 38.46  1.7303 1.5016  59.9 22.4 7733  25
2022 11 27 16  12 03 06.244   -12 42 31.65  1.7300 1.5014  59.9 22.4 7759  25
2022 11 27 17  12 03 13.657   -12 43 24.83  1.7296 1.5013  59.9 22.4 7785  25
2022 11 27 18  12 03 21.071   -12 44 18.01  1.7293 1.5011  59.9 22.4 7811  25
2022 11 27 19  12 03 28.486   -12 45 11.19  1.7289 1.5010  59.9 22.4 7838  25
2022 11 27 20  12 03 35.903   -12 46 04.37  1.7285 1.5008  59.9 22.4 7864  25
2022 11 27 21  12 03 43.321   -12 46 57.54  1.7282 1.5006  59.9 22.4 7891  25
2022 11 27 22  12 03 50.740   -12 47 50.71  1.7278 1.5005  59.9 22.3 7917  25
2022 11 27 23  12 03 58.161   -12 48 43.88  1.7275 1.5003  60.0 22.3 7944  25
2022 11 28 00  12 04 05.584   -12 49 37.05  1.7271 1.5002  60.0 22.3 7970  25
2022 11 28 01  12 04 13.007   -12 50 30.21  1.7267 1.5000  60.0 22.3 7997  25
2022 11 28 02  12 04 20.432   -12 51 23.37  1.7264 1.4998  60.0 22.3 8024  25
2022 11 28 03  12 04 27.859   -12 52 16.53  1.7260 1.4997  60.0 22.3 8050  25
2022 11 28 04  12 04 35.287   -12 53 09.68  1.7257 1.4995  60.0 22.3 8077  25
2022 11 28 05  12 04 42.716   -12 54 02.83  1.7253 1.4994  60.0 22.3 8104  25
2022 11 28 06  12 04 50.146   -12 54 55.98  1.7250 1.4992  60.0 22.3 8131  25
2022 11 28 07  12 04 57.578   -12 55 49.13  1.7246 1.4991  60.0 22.3 8158  25
2022 11 28 08  12 05 05.012   -12 56 42.27  1.7242 1.4989  60.0 22.3 8185  25
2022 11 28 09  12 05 12.446   -12 57 35.41  1.7239 1.4987  60.0 22.3 8212  25
2022 11 28 10  12 05 19.883   -12 58 28.55  1.7235 1.4986  60.0 22.3 8239  25
2022 11 28 11  12 05 27.320   -12 59 21.68  1.7232 1.4984  60.1 22.3 8267  25
2022 11 28 12  12 05 34.759   -13 00 14.81  1.7228 1.4983  60.1 22.3 8294  25
2022 11 28 13  12 05 42.199   -13 01 07.94  1.7225 1.4981  60.1 22.3 8321  25
2022 11 28 14  12 05 49.641   -13 02 01.07  1.7221 1.4979  60.1 22.3 8349  25
2022 11 28 15  12 05 57.084   -13 02 54.19  1.7217 1.4978  60.1 22.3 8376  25
2022 11 28 16  12 06 04.529   -13 03 47.31  1.7214 1.4976  60.1 22.3 8404  25
2022 11 28 17  12 06 11.975   -13 04 40.42  1.7210 1.4975  60.1 22.3 8431  25
2022 11 28 18  12 06 19.422   -13 05 33.54  1.7207 1.4973  60.1 22.3 8459  25
2022 11 28 19  12 06 26.871   -13 06 26.64  1.7203 1.4971  60.1 22.3 8486  25
2022 11 28 20  12 06 34.321   -13 07 19.75  1.7200 1.4970  60.1 22.3 8514  25